Hourly Data Report for June 08, 2012

HALIFAX STANFIELD INT'L A
NOVA SCOTIA

44°52'48.060" N
63°30'00.050" W
145.40 m
8202250
71395
YHZ

Download Data

Hourly Data (June 2012)
Hourly Data Report for June 8, 2012
TIME
LST
Temp Definition
°C
Dew Point Definition
°C
Rel Hum Definition
%
Precip. Amount Definition
mm

Wind Dir Definition
10's deg

Wind Spd Definition
km/h
Visibility Definition
km
Stn Press Definition
kPa
Hmdx Definition


Wind Chill Definition


Weather Definition


00:00 9.4 7.3 87   30 11 24.1 99.37     Mostly Cloudy
01:00 8.6 7.0 90   29 11 24.1 99.34     Mostly Cloudy
02:00 8.6 7.0 90   29 9 24.1 99.34     Mostly Cloudy
03:00 8.6 7.2 91   30 19 24.1 99.30     Mainly Clear
04:00 8.9 7.2 89   31 9 24.1 99.31     Mostly Cloudy
05:00 8.2 7.0 92   34 6 24.1 99.31     Mainly Clear
06:00 9.6 7.6 87   32 6 24.1 99.35     Mainly Clear
07:00 11.9 8.3 79   31 7 24.1 99.37     Mainly Clear
08:00 14.2 8.7 69   30 7 24.1 99.37     Clear
09:00 15.9 9.4 65   30 13 24.1 99.34     Clear
10:00 17.9 10.2 61   25 7 24.1 99.32     Clear
11:00 19.9 9.0 49   31 19 24.1 99.28     Mainly Clear
12:00 21.6 9.8 47   27 7 24.1 99.27     Mainly Clear
13:00 22.4 6.6 36   30 13 24.1 99.24     Mostly Cloudy
14:00 22.5 8.3 40   27 15 24.1 99.20     Mostly Cloudy
15:00 19.5 9.9 54   21 26 24.1 99.18     Mostly Cloudy
16:00 19.8 8.6 48   22 28 24.1 99.16     Mostly Cloudy
17:00 19.0 8.3 50   20 22 24.1 99.13     Mostly Cloudy
18:00 17.4 7.8 53   21 28 24.1 99.16     Mostly Cloudy
19:00 16.1 5.9 51   24 19 24.1 99.23     Mostly Cloudy
20:00 14.9 4.4 49   24 11 24.1 99.22     Mainly Clear
21:00 12.6 5.7 63   22 7 24.1 99.27     Mostly Cloudy
22:00 11.1 6.7 74   18 6 24.1 99.29     Mostly Cloudy
23:00 8.8 6.8 87   17 6 24.1 99.31     Clear

Notes on Data Quality.

Legend

  • E = Estimated
  • M = Missing
  • NA = Not Available*
  • [empty] = Indicates an unobserved value
Date modified: